Regional Weather Roundup
Issued by NWS

Home | Current Version | Previous Version | Graphics & Text | Print | Product List | Glossary On
Versions: 1 2 3 4 5 6 7 8 9 10 11 12 13 14 15 16 17 18 19 20 21 22 23 24 25 26 27 28 29 30 31 32 33 34 35 36 37 38 39 40 41 42 43 44 45 46 47 48 49 50
000
ASUS43 KDTX 080401
RWRMI
MICHIGAN HOURLY REGIONAL WEATHER ROUNDUP
NATIONAL WEATHER SERVICE DETROIT/PONTIAC MI
1100 PM EST WED DEC 07 2016

NOTE: "FAIR" INDICATES FEW OR NO CLOUDS BELOW 12,000 FEET WITH NO
SIGNIFICANT WEATHER AND/OR OBSTRUCTION TO VISIBILITY.

MIZ047>049-052>055-059>063-066>070-074>076-081>083-080500-
SOUTHEAST LOWER MICHIGAN

CITY           SKY/WX    TMP DP  RH WIND       PRES   REMARKS
ADRIAN         CLOUDY    28  20  71 W12G21    30.06S WCI  18
ALMA           CLOUDY    31  20  65 SW17G24   29.97S WCI  19
ANN ARBOR      CLOUDY    29  21  72 SW14      30.02S WCI  18
BAD AXE        CLOUDY    32  25  75 W12G17    29.92F WCI  23
CARO           CLOUDY    32  25  76 SW12G17   29.93F WCI  23
DETROIT CITY   CLOUDY    31  22  69 W12       30.02S WCI  22
DETROIT        CLOUDY    30  20  66 W21       30.04R WCI  17
FLINT          CLOUDY    32  22  66 SW14G24   29.97F WCI  22
GROSSE ILE     PTCLDY    31  22  69 W13G18    30.04R WCI  21
HILLSDALE      CLOUDY    28  19  69 W17G25    30.03R WCI  16
HOWELL         CLOUDY    31  22  71 SW12      29.99S WCI  21

CITY           SKY/WX    TMP DP  RH WIND       PRES   REMARKS
JACKSON        CLOUDY    29  20  69 W12G20    30.02S WCI  19
LAMBERTVILLE   CLOUDY    32  23  70 W13G18    30.07R WCI  22
LANSING        CLOUDY    31  20  63 W22       30.00S WCI  18
LAPEER         NOT AVBL
MASON          CLOUDY    31  22  72 W14G24    30.01S WCI  20
MONROE         CLOUDY    31  25  78 W8        30.05R WCI  23
MT. CLEMENS    CLOUDY    32  22  66 W12       29.98F WCI  23
PONTIAC        CLOUDY    31  21  66 W17G23    29.97F WCI  19
PORT HOPE        N/A     33  22  63 W12G26    29.89F WCI  24
PORT HURON     CLOUDY    30  23  74 W6        29.98F WCI  24
TRI CITIES     CLOUDY    32  23  69 W18G31    29.96S WCI  20
MIDLAND        CLOUDY    32  20  60 W15G21    29.94S WCI  22
TROY           CLOUDY    32  20  61 W14G22    30.01F WCI  22
SAGINAW HB     CLOUDY    32  23  69 W12       29.95S WCI  23
$$
MIZ043>046-050>051-056>058-064>065-071>073-077>080-080500-
SOUTHWEST LOWER MICHIGAN

CITY           SKY/WX    TMP DP  RH WIND       PRES   REMARKS
BATTLE CREEK   CLOUDY    29  21  72 W18G25    30.04S WCI  16
BENTON HARBOR  CLOUDY    28  20  71 W22G28    30.10S WCI  14
BIG RAPIDS     CLOUDY    28  19  69 W15G22    29.96S WCI  16
COLDWATER      CLOUDY    28  20  71 W14G21    30.05S WCI  17
FREMONT        CLOUDY    26  16  65 W15G21    30.01S WCI  14
HOLLAND        CLOUDY    28  21  75 W14G24    30.06R WCI  17
GRAND RAPIDS   CLOUDY    29  20  69 W22G30    30.02S WCI  15
IONIA          CLOUDY    29  21  71 W20G26    29.99S WCI  17
KALAMAZOO      CLOUDY    29  19  66 W12G21    30.05S WCI  19
LUDINGTON      CLOUDY    26  19  73 W13G18    30.00R WCI  15
MARSHALL       CLOUDY    30  21  70 W14G22    30.03R WCI  19
MOUNT PLEASANT CLOUDY    29  20  69 W13G23    29.95S WCI  19
MUSKEGON       CLOUDY    28  20  71 W12G21    30.05R WCI  18
SOUTH HAVEN    CLOUDY    29  22  75 W9G20     30.08S WCI  20
$$
MIZ016>042-080500-
NORTHERN LOWER MICHIGAN

CITY           SKY/WX    TMP DP  RH WIND       PRES   REMARKS
ALPENA         CLOUDY    30  17  58 SW12G21   29.86S WCI  20
BEAVER ISLAND  CLOUDY    28  20  73 W17G29    29.85S WCI  15
BELLAIRE       FLURRIES  29  20  70 SW10G22   29.90R WCI  20
CADILLAC       CLOUDY    24  17  75 W17G25    29.89S WCI  10
CHARLEVOIX     CLOUDY    30  21  70 W16G32    29.89S WCI  18
FRANKFORT      CLOUDY    28  20  72 W14G23    29.95R WCI  17
GAYLORD        LGT SNOW  26  17  68 W23G31    29.82S WCI  11
GRAYLING       CLOUDY    27  18  71 W16G23    29.88R WCI  14
HARBOR SPRINGS LGT SNOW  30  23  76 W15G30    29.84R WCI  19
HOUGHTON LAKE  CLOUDY    26  17  68 W22G33    29.90S WCI  12
MANISTEE       FLURRIES  26  18  71 W16G22    29.97S WCI  14
OSCODA         CLOUDY    32  19  59 MISG      29.89S
PELLSTON       CLOUDY    29  20  69 W10G21    29.83S WCI  20
ROGERS CITY    LGT SNOW  29  23  77 W8G16     29.84S WCI  21
TRAVERSE CITY  CLOUDY    29  18  63 W10G20    29.91R WCI  20
$$
MIZ007>008-015-080500-
EASTERN UPPER MICHIGAN

CITY           SKY/WX    TMP DP  RH WIND       PRES   REMARKS
MACKINAC ISLAN CLOUDY    28  20  72 W21G36    29.81R WCI  15
NEWBERRY       CLEAR     22  14  72 SW13G18   29.79S WCI   9
MUNISING         N/A     24  13  62 SW12      29.82S WCI  13
$$
MIZ004>006-011>014-085-080500-
CENTRAL UPPER MICHIGAN

CITY           SKY/WX    TMP DP  RH WIND       PRES   REMARKS
MANISTIQUE     MOCLDY    23  14  69 W6        29.84S WCI  15
SAWYER-GWINN   PTCLDY    19  11  72 W16       29.81S WCI   4
$$
MIZ001>003-009>011-084-080500-
WESTERN UPPER MICHIGAN

CITY           SKY/WX    TMP DP  RH WIND       PRES   REMARKS
$$

ABBREVIATIONS USED IN REMARKS
   TC - TEMPERATURE IN CELSIUS
  WCI - WIND CHILL INDEX
   HX - HEAT INDEX
  VSB - VISIBILITY





USA.gov is the U.S. government's official web portal to all federal, state and local government web resources and services.